Location: Mauries
(43.6188°N, 0.3322°W)
Time: 19:09:31
(UTC+00:00)

Helios 1A Rocket - Pass Details

Date: 14 January 2026
Orbit: 426 x 436 km, 98.3° (Epoch: 11 February)

Event Time Altitude Azimuth Distance (km) Brightness Sun altitude
Rises 06:27:28 0° 188° (S) 2,439 6.3 -11.5°
Reaches altitude 10° 06:29:39 10° 199° (SSW) 1,575 5.2 -11.2°
Maximum altitude 06:32:38 29° 262° (W) 848 3.3 -10.7°
Enters shadow 06:35:39 10° 325° (NW) 1,583 4.7 -10.1°
